STATION HISTORICAL DATA FROM WUNDERGROUND.COM FOR HIGH PARK VILLAGE,TORONTO,ON,CANADA
 
Daily Summary for January 18, 2019 Units:  Metric    English   Both
Next Day »
Daily Weekly Monthly Yearly Custom
  Current: High: Low: Average:
Temperature: -2.8 °C -1.8 °C -2.8 °C -2 °C
Dew Point: -5.7 °C -5.1 °C -6.2 °C -5.6 °C
Humidity: 81% 81% 73% 77%
Wind Speed: 0km/h 0km/h 0km/h 0km/h
Wind Gust: 0km/h 0km/h - -
WindCalm - - North
Pressure: 1013.4 hPa 1015.1 hPa 1013.4 hPa -
Precipitation: 0 mm      
Historical Graphs
 
 
Tabular Data for January 18, 2019
Time Temperature Dew Point Pressure Wind Wind Speed Wind Gust Humidity Rainfall Rate (Hourly) Solar Conditions
00:04 -2 °C -6.2 °C 1015.1 hPa Calm     73% 0 mm 0.00 W/m2
00:09 -2 °C -6.2 °C 1015.1 hPa Calm     73% 0 mm 0.00 W/m2
00:14 -1.9 °C -6.2 °C 1014.8 hPa Calm     73% 0 mm 0.00 W/m2
00:19 -1.9 °C -5.9 °C 1014.8 hPa Calm     74% 0 mm 0.00 W/m2
00:24 -1.9 °C -5.9 °C 1014.4 hPa Calm     74% 0 mm 0.00 W/m2
00:29 -1.9 °C -5.9 °C 1014.4 hPa Calm     74% 0 mm 0.00 W/m2
00:34 -1.9 °C -5.9 °C 1014.4 hPa Calm     74% 0 mm 0.00 W/m2
00:39 -1.9 °C -5.7 °C 1014.4 hPa Calm     75% 0 mm 0.00 W/m2
00:44 -1.9 °C -5.7 °C 1014.1 hPa Calm     75% 0 mm 0.00 W/m2
00:49 -1.9 °C -5.7 °C 1014.1 hPa Calm     75% 0 mm 0.00 W/m2
00:54 -1.9 °C -5.7 °C 1014.1 hPa Calm     75% 0 mm 0.00 W/m2
00:59 -1.9 °C -5.8 °C 1014.1 hPa Calm     75% 0 mm 0.00 W/m2
01:04 -1.9 °C -5.8 °C 1014.1 hPa Calm     75% 0 mm 0.00 W/m2
01:09 -2 °C -5.7 °C 1014.1 hPa Calm     76% 0 mm 0.00 W/m2
01:14 -1.9 °C -5.6 °C 1014.1 hPa Calm     76% 0 mm 0.00 W/m2
01:19 -1.9 °C -5.6 °C 1014.1 hPa Calm     76% 0 mm 0.00 W/m2
01:24 -1.9 °C -5.6 °C 1013.8 hPa Calm     76% 0 mm 0.00 W/m2
01:29 -1.8 °C -5.5 °C 1013.8 hPa Calm     76% 0 mm 0.00 W/m2
01:34 -1.8 °C -5.5 °C 1013.8 hPa Calm     76% 0 mm 0.00 W/m2
01:39 -1.8 °C -5.3 °C 1013.8 hPa Calm     77% 0 mm 0.00 W/m2
01:44 -1.8 °C -5.3 °C 1013.8 hPa Calm     77% 0 mm 0.00 W/m2
01:49 -1.8 °C -5.3 °C 1013.4 hPa Calm     77% 0 mm 0.00 W/m2
01:54 -1.8 °C -5.1 °C 1013.4 hPa Calm     78% 0 mm 0.00 W/m2
01:59 -1.8 °C -5.1 °C 1013.4 hPa Calm     78% 0 mm 0.00 W/m2
02:04 -1.8 °C -5.2 °C 1013.4 hPa Calm     78% 0 mm 0.00 W/m2
02:09 -1.8 °C -5.2 °C 1013.4 hPa Calm     78% 0 mm 0.00 W/m2
02:14 -1.9 °C -5.2 °C 1013.4 hPa Calm     78% 0 mm 0.00 W/m2
02:19 -2 °C -5.2 °C 1013.4 hPa Calm     79% 0 mm 0.00 W/m2
02:24 -2.1 °C -5.3 °C 1013.4 hPa Calm     79% 0 mm 0.00 W/m2
02:29 -2.2 °C -5.4 °C 1013.4 hPa Calm     79% 0 mm 0.00 W/m2
02:34 -2.4 °C -5.4 °C 1013.4 hPa Calm     80% 0 mm 0.00 W/m2
02:39 -2.6 °C -5.6 °C 1013.8 hPa Calm     80% 0 mm 0.00 W/m2
02:44 -2.7 °C -5.6 °C 1013.8 hPa Calm     81% 0 mm 0.00 W/m2
02:49 -2.8 °C -5.7 °C 1013.4 hPa Calm     81% 0 mm 0.00 W/m2
High Park Village Arhives